Total_Precipitation_Accumulation
0.05 0.11 0.29 0.57 1.23 1.54 1.31 0.74 0.55 0.43 0.44 0.45 0.47 0.45 0.49 0.58 0.91 1.29 0.93 0.56 0.20 0.10 0.15 0.33 0.48 0.39 0.36 0.37 0.39 0.41 0.38 0.36 0.35 0.34 0.31 0.32 0.33 0.35 0.38 0.43 0.48 0.55 0.58 0.61 0.60 0.62 0.57 0.58 0.67
0.08 0.15 0.35 0.84 1.52 1.52 1.13 0.63 0.47 0.37 0.40 0.40 0.36 0.41 0.54 0.60 0.48 0.52 0.66 0.51 0.18 0.08 0.08 0.12 0.32 0.36 0.34 0.35 0.38 0.40 0.39 0.35 0.33 0.35 0.31 0.34 0.39 0.44 0.47 0.45 0.48 0.54 0.56 0.53 0.54 0.49 0.53 0.59 0.67
0.10 0.18 0.38 0.85 1.01 0.99 0.80 0.51 0.43 0.34 0.44 0.59 0.50 0.42 0.54 0.71 0.54 0.49 0.48 0.29 0.16 0.10 0.08 0.15 0.27 0.29 0.31 0.33 0.35 0.37 0.36 0.35 0.33 0.36 0.33 0.37 0.42 0.51 0.55 0.52 0.49 0.50 0.51 0.51 0.53 0.50 0.57 0.57 0.66
0.10 0.23 0.42 0.55 0.43 0.40 0.42 0.41 0.43 0.46 0.65 0.80 0.66 0.54 0.60 0.57 0.52 0.46 0.37 0.25 0.18 0.15 0.14 0.20 0.29 0.30 0.30 0.32 0.32 0.33 0.33 0.33 0.35 0.40 0.39 0.41 0.43 0.51 0.52 0.55 0.54 0.51 0.53 0.59 0.63 0.57 0.60 0.62 0.64
0.10 0.28 0.55 0.41 0.24 0.24 0.25 0.30 0.46 0.53 0.77 0.86 0.63 0.66 0.78 0.70 0.62 0.57 0.43 0.38 0.33 0.37 0.35 0.33 0.37 0.35 0.33 0.32 0.34 0.34 0.35 0.35 0.38 0.41 0.41 0.45 0.48 0.54 0.56 0.61 0.61 0.54 0.55 0.61 0.67 0.65 0.65 0.73 0.80
0.09 0.22 0.37 0.28 0.17 0.14 0.18 0.26 0.41 0.54 0.75 0.84 0.70 0.89 0.97 0.97 0.89 0.81 0.76 0.80 0.73 0.76 0.69 0.62 0.60 0.51 0.45 0.40 0.40 0.40 0.42 0.39 0.42 0.44 0.44 0.47 0.51 0.54 0.58 0.61 0.62 0.59 0.57 0.62 0.65 0.67 0.69 0.76 0.83
0.08 0.18 0.24 0.16 0.11 0.12 0.19 0.25 0.43 0.61 0.76 0.98 0.95 1.05 1.09 1.24 1.16 1.05 1.02 1.09 1.13 1.09 1.02 0.82 0.69 0.63 0.56 0.59 0.54 0.49 0.48 0.47 0.47 0.51 0.48 0.46 0.49 0.49 0.50 0.58 0.64 0.58 0.59 0.63 0.67 0.67 0.74 0.76 0.80
0.05 0.09 0.14 0.09 0.05 0.09 0.16 0.25 0.39 0.59 0.83 0.97 0.97 1.05 1.09 1.11 1.14 1.22 1.31 1.44 1.63 1.49 1.30 0.98 0.81 0.85 0.72 0.64 0.63 0.59 0.53 0.53 0.53 0.56 0.55 0.57 0.59 0.57 0.60 0.65 0.74 0.68 0.66 0.68 0.75 0.78 0.78 0.81 0.83
0.03 0.06 0.08 0.07 0.03 0.06 0.15 0.31 0.45 0.50 0.67 0.99 1.20 1.04 0.90 1.00 1.31 1.54 1.86 1.93 2.05 1.90 1.48 1.10 1.02 1.10 0.98 0.80 0.71 0.84 0.78 0.74 0.77 0.84 0.84 1.01 1.26 1.05 1.05 0.89 0.98 0.92 0.92 0.95 1.03 1.06 1.09 1.04 0.91
0.03 0.06 0.06 0.03 0.02 0.04 0.15 0.37 0.53 0.64 0.98 1.31 1.47 1.27 1.05 1.05 1.49 1.85 2.01 2.11 1.82 1.86 1.81 1.48 1.24 1.17 1.20 1.03 1.01 1.39 1.35 1.28 1.43 1.49 1.43 1.73 1.75 1.57 1.13 1.12 1.38 1.34 1.43 1.52 1.72 1.85 1.63 1.33 1.16
0.02 0.03 0.02 0.03 0.02 0.06 0.19 0.22 0.31 0.57 1.19 1.57 1.77 1.39 1.15 1.22 1.55 2.05 2.23 2.15 1.88 1.87 1.76 1.81 1.63 1.46 1.42 1.51 1.41 1.53 1.71 1.75 1.89 1.83 1.86 2.07 1.75 1.50 1.33 1.49 1.80 1.81 1.89 1.96 2.20 2.36 1.84 1.83 2.14
0.02 0.02 0.01 0.02 0.02 0.04 0.11 0.20 0.35 0.66 1.15 1.41 1.30 1.15 1.16 1.36 1.58 2.12 2.46 2.33 2.20 2.13 2.01 2.25 2.16 2.03 2.03 1.89 1.87 1.67 1.60 1.62 1.75 1.85 1.83 1.99 1.97 1.84 1.83 1.95 1.99 2.15 2.30 2.53 2.41 2.57 2.56 2.61 2.46
0.01 0.01 0.01 0.01 0.02 0.04 0.09 0.20 0.33 0.56 0.84 0.91 0.81 0.97 1.37 1.47 1.73 2.25 2.81 2.82 2.72 2.56 2.62 2.78 2.80 2.86 2.68 2.42 2.20 1.81 1.74 1.65 1.62 1.68 1.69 1.90 2.16 2.19 2.30 2.11 2.13 1.93 2.05 2.39 2.65 2.68 2.89 3.04 2.90
0.01 0.01 0.02 0.03 0.05 0.06 0.10 0.21 0.38 0.75 0.76 0.69 0.81 1.12 1.45 1.82 1.94 2.34 3.02 3.28 3.22 3.19 3.36 3.36 3.39 3.40 3.18 2.76 2.51 2.22 1.92 1.90 1.73 1.69 1.77 2.21 2.42 2.37 2.45 2.35 2.30 2.01 2.02 2.33 2.67 2.74 3.02 3.01 3.03
0.01 0.04 0.10 0.10 0.08 0.10 0.15 0.45 0.65 0.82 0.78 0.77 0.98 1.21 1.66 2.20 2.41 2.68 3.09 3.40 3.63 3.87 4.04 4.22 4.14 3.83 3.76 3.39 2.75 2.29 2.01 1.83 1.87 1.97 2.03 2.28 2.44 2.59 2.74 2.66 2.31 2.09 2.19 2.38 2.40 2.53 2.98 2.83 2.80
0.02 0.07 0.24 0.20 0.10 0.12 0.22 0.67 0.81 0.84 0.87 0.94 1.16 1.49 1.82 2.28 2.34 2.59 2.95 3.47 4.05 4.44 4.84 5.03 4.70 4.55 4.46 4.08 3.50 2.98 2.67 2.44 2.39 2.36 2.19 2.01 2.21 2.33 2.52 2.29 1.94 2.01 2.24 2.40 2.37 2.38 2.76 2.86 2.88
0.06 0.10 0.20 0.20 0.13 0.13 0.24 0.64 0.65 0.56 0.91 1.29 1.53 1.69 1.83 1.98 2.08 2.30 2.65 3.35 4.15 4.78 5.48 5.87 6.02 5.50 5.05 4.44 3.97 3.46 3.13 2.90 2.64 2.34 2.09 1.81 1.63 1.58 1.76 1.71 1.64 1.69 1.95 1.99 1.77 2.00 2.28 2.44 2.59
0.05 0.09 0.16 0.20 0.17 0.17 0.30 0.57 0.68 0.60 0.89 1.25 1.30 1.57 1.68 1.68 1.86 2.25 2.77 3.28 4.15 4.94 5.64 6.01 6.17 5.62 4.86 4.49 4.38 4.00 3.43 3.01 2.63 2.24 1.99 1.63 1.46 1.31 1.44 1.45 1.33 1.35 1.45 1.50 1.67 1.95 2.03 1.96 2.04
0.04 0.09 0.16 0.18 0.18 0.24 0.41 0.66 0.78 0.78 0.84 0.99 1.10 1.30 1.34 1.38 1.65 2.11 2.74 3.40 4.21 5.31 5.96 6.05 5.70 4.98 4.43 3.93 3.63 3.30 3.01 2.75 2.31 1.92 1.68 1.51 1.41 1.32 1.41 1.30 1.29 1.24 1.26 1.26 1.38 1.59 1.65 1.45 1.59
0.05 0.09 0.17 0.17 0.14 0.16 0.38 0.72 0.82 0.88 0.95 0.95 1.01 1.10 1.02 1.17 1.51 2.11 2.89 3.70 4.32 4.87 5.23 5.27 4.84 4.07 3.57 3.22 3.12 2.83 2.58 2.23 2.01 1.76 1.66 1.42 1.32 1.25 1.19 1.29 1.12 1.08 1.18 1.15 1.24 1.43 1.45 1.28 1.37
0.08 0.09 0.15 0.18 0.15 0.17 0.38 0.86 1.03 0.98 0.97 0.97 0.87 0.85 0.94 1.14 1.69 2.47 3.30 4.04 4.33 4.36 4.15 3.84 3.60 3.19 3.05 2.94 2.74 2.49 2.39 2.10 1.90 1.64 1.48 1.26 1.11 1.04 0.99 0.98 0.95 0.98 0.91 1.01 1.15 1.26 1.41 1.37 1.18
0.09 0.07 0.05 0.07 0.13 0.34 0.47 0.94 1.09 1.11 1.07 0.95 0.91 0.93 1.04 1.30 1.84 2.56 3.12 3.35 3.48 3.41 3.12 2.90 2.78 2.67 2.59 2.49 2.33 2.01 1.78 1.71 1.57 1.45 1.40 1.29 1.14 1.07 1.01 0.88 0.91 0.91 0.82 1.01 0.88 1.00 1.21 1.30 1.12
0.06 0.04 0.04 0.08 0.19 0.35 0.49 0.79 1.14 1.13 1.20 0.81 0.69 0.80 0.89 1.10 1.40 1.64 1.86 2.02 2.14 2.17 2.32 2.35 2.40 2.50 2.38 2.32 2.24 2.08 1.80 1.74 1.72 1.66 1.67 1.55 1.38 1.18 0.98 0.95 1.00 1.00 0.87 0.89 0.92 1.07 1.11 1.15 1.09
0.04 0.06 0.13 0.22 0.37 0.71 0.70 0.83 1.17 1.16 0.99 0.62 0.44 0.49 0.69 0.80 0.87 0.97 1.08 1.20 1.43 1.48 1.67 1.82 1.88 2.01 2.13 2.11 1.98 1.92 1.83 1.83 1.83 1.72 1.55 1.36 1.26 1.17 1.05 1.05 1.16 1.12 1.05 0.98 0.96 0.99 1.04 1.17 1.25
0.05 0.09 0.31 0.64 0.99 1.05 0.62 0.73 1.12 1.04 0.72 0.46 0.37 0.33 0.38 0.54 0.69 0.84 0.97 1.08 1.27 1.20 1.25 1.43 1.48 1.51 1.63 1.64 1.60 1.66 1.76 1.78 1.62 1.50 1.40 1.25 1.05 1.01 1.07 1.06 1.15 1.14 1.15 1.10 1.15 1.15 1.07 1.15 1.23
0.06 0.07 0.18 0.35 0.46 0.62 0.65 1.13 1.36 0.80 0.50 0.35 0.31 0.27 0.28 0.43 0.60 0.71 0.70 0.78 0.90 0.86 0.93 1.05 1.19 1.25 1.29 1.36 1.40 1.40 1.50 1.47 1.40 1.45 1.36 1.21 1.01 0.93 0.94 0.98 1.00 1.03 1.07 1.06 1.29 1.20 1.21 1.23 1.16
0.06 0.05 0.07 0.10 0.17 0.44 0.81 1.16 1.13 0.68 0.51 0.34 0.29 0.26 0.27 0.33 0.48 0.53 0.46 0.47 0.59 0.69 0.75 0.80 0.98 1.10 1.11 1.22 1.28 1.23 1.29 1.34 1.39 1.41 1.32 1.15 1.14 1.04 1.05 1.05 1.14 1.19 1.20 1.22 1.38 1.34 1.28 1.34 1.19
0.07 0.07 0.08 0.10 0.19 0.40 0.73 1.17 1.38 1.00 0.57 0.39 0.38 0.37 0.35 0.32 0.37 0.39 0.37 0.35 0.43 0.55 0.71 0.80 0.91 1.01 1.04 1.13 1.12 0.98 1.13 1.24 1.36 1.34 1.27 1.21 1.24 1.16 1.21 1.22 1.27 1.32 1.28 1.27 1.40 1.40 1.44 1.46 1.36
0.09 0.09 0.10 0.11 0.12 0.23 0.56 0.84 0.73 0.72 0.55 0.53 0.50 0.44 0.40 0.35 0.37 0.36 0.32 0.30 0.32 0.41 0.60 0.73 0.85 0.94 0.97 1.03 1.11 1.16 1.15 1.07 1.18 1.24 1.24 1.28 1.31 1.23 1.25 1.31 1.37 1.34 1.38 1.47 1.56 1.44 1.49 1.56 1.68
0.11 0.11 0.12 0.14 0.12 0.13 0.27 0.44 0.44 0.62 0.61 0.59 0.58 0.53 0.49 0.35 0.32 0.33 0.33 0.35 0.35 0.36 0.47 0.59 0.71 0.83 0.90 0.98 1.10 1.16 1.24 1.16 1.13 1.17 1.24 1.30 1.40 1.44 1.38 1.39 1.41 1.31 1.33 1.50 1.58 1.56 1.56 1.57 1.58